Date String (YYYY-MM-DD hh:mm:ss) UTC,Instrument flags,Ambient pressure (hPa),Sample flow (lpm),Bypass flow (lpm),Sample temperature (°C),Ambient temperature (°C),ASC tube jacket temperature (°C),LED temperature (°C),Box temperature (°C),Sample RH (%),Span deviation,Mass concentration (μg/m³),Mass concentration (μg/m³),Mass concentration (μg/m³)
DateTimeUTC,F1_M11,P_M11,Q1_M11,Q2_M11,T1_M11,T2_M11,T3_M11,T4_M11,T5_M11,U1_M11,ZSPAN_M11,X0_M11,X2_M11,X1_M11
2022-11-15 06:00:00,,0829.0,5.02,0.00,20.8,18.9,00.0,29.8,22.4,17.1,-000.1,0010.65,0006.73,0006.12
2022-11-15 06:01:00,,0829.0,4.99,0.00,20.8,18.8,00.0,29.8,22.3,17.1,0000.0,0011.06,0006.73,0006.11
2022-11-15 06:02:00,,0829.1,5.00,0.00,20.7,18.6,00.0,29.8,22.2,17.2,0000.4,0011.49,0006.73,0006.09
2022-11-15 06:03:00,,0829.0,5.02,0.00,20.7,19.3,00.0,29.7,22.4,17.2,0000.9,0011.00,0006.70,0006.05
2022-11-15 06:04:00,,0829.0,4.98,0.00,20.8,20.8,00.0,29.7,22.7,17.1,0001.1,0010.86,0006.66,0006.02
2022-11-15 06:05:00,,0829.1,5.00,0.00,21.0,21.3,00.0,29.7,22.9,17.0,0000.7,0010.87,0006.63,0006.00
2022-11-15 06:06:00,,0829.1,5.00,0.00,21.0,20.8,00.0,29.8,22.9,16.9,0000.7,0010.94,0006.56,0005.96
2022-11-15 06:07:00,,0829.1,5.00,0.00,21.0,20.3,00.0,29.8,22.8,16.9,0000.7,0010.83,0006.52,0005.94
2022-11-15 06:08:00,,0829.1,5.01,0.00,21.0,19.9,00.0,29.8,22.7,16.8,0000.4,0010.75,0006.48,0005.92
2022-11-15 06:09:00,,0829.1,5.01,0.00,20.9,19.5,00.0,29.9,22.6,16.7,0000.6,0010.71,0006.45,0005.89
2022-11-15 06:10:00,,0829.1,5.00,0.00,20.9,19.3,00.0,29.9,22.5,16.8,0001.2,0010.71,0006.45,0005.87
2022-11-15 06:11:00,,0829.0,5.00,0.00,20.9,19.1,00.0,29.8,22.5,16.7,0002.5,0010.71,0006.44,0005.85
2022-11-15 06:12:00,,0829.1,5.00,0.00,20.8,19.0,00.0,29.8,22.4,16.8,0002.1,0010.42,0006.43,0005.83
2022-11-15 06:13:00,,0829.1,4.99,0.00,20.8,19.0,00.0,29.8,22.4,16.8,0001.7,0010.79,0006.43,0005.82
2022-11-15 06:14:00,,0829.1,5.00,0.00,20.8,19.0,00.0,29.8,22.4,16.7,0001.6,0011.68,0006.41,0005.81
2022-11-15 06:15:00,,0829.0,5.00,0.00,20.8,19.0,00.0,29.8,22.4,16.8,0001.5,0011.81,0006.40,0005.79
2022-11-15 06:16:00,,0829.0,4.99,0.00,20.8,19.0,00.0,29.8,22.4,16.8,0001.3,0011.85,0006.43,0005.78
2022-11-15 06:17:00,,0829.0,5.01,0.00,20.8,19.9,00.0,29.7,22.6,16.8,0001.4,0011.73,0006.42,0005.79
2022-11-15 06:18:00,,0829.0,4.99,0.00,20.9,21.2,00.0,29.7,22.8,16.7,0001.5,0011.75,0006.42,0005.78
2022-11-15 06:19:00,,0829.1,5.00,0.00,21.0,21.5,00.0,29.8,23.0,16.6,0001.2,0011.76,0006.42,0005.79
2022-11-15 06:20:00,,0829.2,5.00,0.00,21.1,21.1,00.0,29.8,23.0,16.5,0001.5,0011.81,0006.42,0005.80
2022-11-15 06:21:00,,0829.1,5.01,0.00,21.1,20.7,00.0,29.9,22.9,16.4,0001.1,0011.80,0006.39,0005.80
2022-11-15 06:22:00,,0829.1,4.99,0.00,21.1,20.3,00.0,29.9,22.8,16.3,0000.4,0011.84,0006.40,0005.81
2022-11-15 06:23:00,,0829.1,4.99,0.00,21.1,20.0,00.0,29.9,22.8,16.3,0000.2,0011.80,0006.40,0005.80
2022-11-15 06:24:00,,0829.1,5.01,0.00,21.0,19.9,00.0,29.9,22.8,16.3,-000.3,0010.91,0006.35,0005.78
2022-11-15 06:25:00,,0829.2,5.01,0.00,21.0,19.7,00.0,29.9,22.8,16.3,-000.6,0009.96,0006.34,0005.79
2022-11-15 06:26:00,,0829.2,4.99,0.00,21.0,19.7,00.0,29.9,22.8,16.3,-000.1,0010.03,0006.35,0005.80
2022-11-15 06:27:00,,0829.2,4.99,0.00,21.0,19.7,00.0,29.9,22.8,16.3,0000.6,0010.43,0006.34,0005.80
2022-11-15 06:28:00,,0829.2,5.01,0.00,21.0,19.6,00.0,29.9,22.8,16.3,0001.0,0010.36,0006.34,0005.80
2022-11-15 06:29:00,,0829.3,5.01,0.00,21.0,19.6,00.0,29.9,22.8,16.3,0001.3,0010.34,0006.35,0005.81
2022-11-15 06:30:00,,0829.3,4.99,0.00,21.0,19.5,00.0,30.0,22.8,16.3,0001.5,0010.94,0006.37,0005.82
2022-11-15 06:31:00,,0829.3,4.98,0.00,21.0,19.4,00.0,30.0,22.8,16.3,0001.4,0012.04,0006.39,0005.82
2022-11-15 06:32:00,,0829.3,5.01,0.00,21.0,19.4,00.0,30.0,22.7,16.3,0001.4,0012.17,0006.44,0005.82
2022-11-15 06:33:00,,0829.3,5.01,0.00,21.0,19.3,00.0,29.9,22.7,16.3,0001.3,0012.14,0006.45,0005.82
2022-11-15 06:34:00,,0829.3,5.01,0.00,21.0,19.3,00.0,29.9,22.7,16.3,0001.2,0012.20,0006.47,0005.85
2022-11-15 06:35:00,,0829.2,5.01,0.00,21.0,19.4,00.0,29.9,22.7,16.3,0001.9,0012.48,0006.52,0005.88
2022-11-15 06:36:00,,0829.2,5.01,0.00,21.0,20.5,00.0,29.9,22.9,16.3,0002.1,0012.88,0006.57,0005.91
2022-11-15 06:37:00,,0829.3,4.98,0.00,21.2,21.6,00.0,29.9,23.1,16.2,0002.2,0013.34,0006.61,0005.92
2022-11-15 06:38:00,,0829.3,5.03,0.00,21.2,21.4,00.0,29.9,23.2,16.1,0001.4,0012.94,0006.63,0005.93
2022-11-15 06:39:00,,0829.3,4.99,0.00,21.3,21.0,00.0,30.0,23.2,16.1,0000.6,0012.88,0006.62,0005.94
2022-11-15 06:40:00,,0829.3,4.99,0.00,21.3,20.7,00.0,30.0,23.1,16.0,0001.3,0012.90,0006.63,0005.96
2022-11-15 06:41:00,,0829.3,5.01,0.00,21.3,20.5,00.0,30.1,23.1,16.0,0001.6,0012.49,0006.66,0005.98
2022-11-15 06:42:00,,0829.2,5.01,0.00,21.3,20.2,00.0,30.1,23.0,16.0,0000.9,0011.56,0006.70,0005.99
2022-11-15 06:43:00,,0829.2,5.00,0.00,21.3,20.1,00.0,30.1,23.0,16.1,0000.0,0011.66,0006.70,0006.00
2022-11-15 06:44:00,,0829.2,5.00,0.00,21.3,20.0,00.0,30.1,23.0,16.1,0000.0,0011.74,0006.74,0006.03
2022-11-15 06:45:00,,0829.3,4.99,0.00,21.3,19.9,00.0,30.1,23.0,16.1,0001.4,0011.69,0006.74,0006.05
2022-11-15 06:46:00,,0829.3,5.01,0.00,21.2,19.9,00.0,30.1,23.0,16.1,0000.4,0011.75,0006.79,0006.06
2022-11-15 06:47:00,,0829.3,5.01,0.00,21.2,19.8,00.0,30.1,23.0,16.1,0000.7,0011.41,0006.81,0006.07
2022-11-15 06:48:00,,0829.2,5.00,0.00,21.2,19.8,00.0,30.1,23.0,16.2,-000.0,0010.99,0006.82,0006.09
2022-11-15 06:49:00,,0829.2,5.00,0.00,21.2,19.7,00.0,30.1,23.0,16.2,-000.5,0011.05,0006.89,0006.10
2022-11-15 06:50:00,,0829.2,4.99,0.00,21.2,19.7,00.0,30.1,23.0,16.2,-000.8,0011.25,0006.96,0006.12
2022-11-15 06:51:00,,0829.2,5.00,0.00,21.2,19.7,00.0,30.1,23.0,16.2,-000.7,0011.50,0007.05,0006.14
2022-11-15 06:52:00,,0829.2,5.00,0.00,21.2,19.7,00.0,30.1,23.0,16.2,-001.1,0011.59,0007.08,0006.16
2022-11-15 06:53:00,,0829.2,5.01,0.00,21.2,19.7,00.0,30.1,22.9,16.3,-001.2,0011.49,0007.11,0006.19
2022-11-15 06:54:00,,0829.2,5.00,0.00,21.2,19.7,00.0,30.1,22.9,16.3,-001.3,0011.24,0007.12,0006.20
2022-11-15 06:55:00,,0829.2,5.00,0.00,21.2,19.8,00.0,30.1,22.9,16.3,-001.5,0011.81,0007.12,0006.21
2022-11-15 06:56:00,,0829.2,5.01,0.00,21.2,20.5,00.0,30.1,23.1,16.3,-001.9,0012.77,0007.15,0006.19
2022-11-15 06:57:00,,0829.4,4.98,0.00,21.3,21.6,00.0,30.0,23.3,16.2,-002.0,0013.32,0007.12,0006.19
2022-11-15 06:58:00,,0829.3,5.02,0.00,21.4,21.8,00.0,30.1,23.5,16.1,-001.5,0013.57,0007.14,0006.18
2022-11-15 06:59:00,,0829.3,4.98,0.00,21.5,21.4,00.0,30.2,23.5,16.1,-001.3,0013.72,0007.15,0006.18
